Location: Elende
(51.4317°N, 10.6316°E)
Time: 02:10:13
(UTC+00:00)

USA 238 - Pass Details

Date: 18 September 2020
Orbit: 1006 x 1206 km, 63.4° (Epoch: 15 October)

Event Time Altitude Azimuth Distance (km) Brightness Sun altitude
Rises 19:31:50 0° 315° (NW) 3,935 8.1 -19.8°
Reaches altitude 10° 19:34:29 10° 312° (NW) 3,002 7.2 -20.2°
Maximum altitude 19:41:34 64° 233° (SW) 1,272 4.1 -21.1°
Enters shadow 19:45:44 28° 161° (SSE) 2,067 4.8 -21.7°
